Wind_Speed
19 19 20 20 20 20 21 22 22 23 25 26 27 28 30 31 32 34 35 37 38 38 38 38 38 38 37 36 36 36 35 35 35 34 34 34 34 34 33 33 32 31 30
22 22 22 22 22 22 23 24 25 26 27 28 30 31 32 33 35 36 38 39 40 40 40 39 38 38 38 37 37 37 36 36 36 36 35 35 35 35 34 34 33 32 31
24 24 25 25 25 25 26 27 28 29 30 31 32 34 35 36 37 39 40 41 41 41 41 40 39 39 38 38 37 37 37 37 36 36 36 36 36 36 36 35 35 34 33
27 27 27 28 27 27 28 29 30 31 32 34 35 36 37 38 40 41 42 43 43 43 42 41 40 39 39 38 38 37 37 37 37 37 37 37 37 38 37 37 37 36 35
30 29 30 30 30 30 31 32 33 34 35 36 37 38 39 40 42 43 45 45 44 44 42 42 41 40 39 39 39 38 38 39 39 39 39 40 40 40 40 39 39 38 38
32 32 32 33 33 33 33 34 35 36 37 38 39 40 41 42 44 46 46 45 45 43 43 42 41 41 40 40 40 40 40 41 41 41 41 41 42 42 42 42 41 40 40
35 35 34 34 35 35 36 37 38 39 40 41 41 41 42 44 45 46 46 46 44 43 43 42 41 41 41 42 42 42 42 43 43 43 43 43 43 44 44 44 43 43 42
38 37 37 37 37 38 38 39 40 41 42 42 43 44 44 45 45 46 45 45 44 44 43 43 42 42 42 43 43 44 44 44 44 44 44 44 45 46 47 47 46 46 45
40 39 39 39 40 40 40 41 42 43 43 43 45 46 47 47 46 44 43 43 43 43 43 42 42 43 43 43 44 44 44 44 44 44 44 45 46 46 46 47 47 47 48
42 42 42 42 42 42 43 43 44 44 45 45 46 47 48 48 48 46 43 42 42 42 42 42 43 44 44 44 44 44 44 44 43 43 44 45 46 47 47 47 47 49 49
44 44 44 44 44 44 44 45 45 46 46 46 47 48 48 48 47 46 44 43 42 42 43 43 43 43 43 44 44 44 43 43 43 43 43 44 45 46 46 46 47 49 49
46 46 46 46 46 45 45 46 46 46 47 47 48 49 48 47 46 45 44 43 42 42 43 43 43 43 43 43 42 42 42 42 41 41 41 41 42 43 44 44 45 46 47
46 46 46 46 46 46 46 46 46 47 48 48 48 48 47 46 45 44 43 42 42 42 41 42 42 43 42 41 40 40 40 39 38 37 38 38 38 39 39 40 42 42 43
46 47 47 46 46 47 47 47 47 48 48 48 47 46 45 44 43 43 42 42 41 40 40 41 42 41 40 38 38 37 37 36 35 34 34 34 34 34 33 33 36 38 38
47 47 47 46 46 46 46 47 47 47 47 46 45 44 43 43 42 41 41 41 40 40 40 40 40 39 37 36 36 35 34 33 32 32 31 30 29 29 28 29 29 30 33
47 47 47 47 46 46 46 47 47 46 45 45 44 42 42 41 40 40 39 40 40 39 39 38 38 37 35 34 33 33 32 31 30 30 28 27 26 24 24 24 25 26 28
47 47 47 47 47 46 46 46 46 45 44 43 41 41 40 40 39 39 38 38 38 38 37 36 35 34 33 32 31 31 30 29 29 28 27 25 24 24 23 23 22 22 23
47 47 46 46 46 45 45 45 44 43 42 40 40 39 39 38 37 37 36 36 36 36 35 34 33 33 32 31 31 30 30 29 29 28 26 25 24 23 22 22 22 22 23
47 47 46 45 44 44 43 42 41 41 39 39 38 37 37 36 35 35 35 34 34 34 34 33 32 32 31 31 31 31 30 30 29 29 28 27 26 25 24 24 24 24 25
46 46 45 44 43 42 41 40 39 38 37 37 36 35 34 34 33 33 33 33 33 33 32 32 32 31 31 31 32 31 31 31 31 31 30 30 29 28 27 27 27 28 29
44 43 43 42 41 40 39 38 37 36 35 34 33 33 32 32 32 32 32 32 32 31 31 31 31 32 32 32 32 32 32 32 32 32 32 32 31 31 30 30 30 31 32
42 41 41 40 39 38 37 36 35 34 33 32 31 31 30 30 30 31 31 31 31 31 31 31 32 32 32 33 33 33 33 33 33 34 34 34 34 34 34 34 35 35 35
39 39 38 37 36 36 35 33 32 31 30 29 29 29 29 29 29 29 30 30 30 31 32 32 33 33 34 34 35 35 35 36 35 35 36 36 36 36 37 38 38 39 40
37 36 35 35 34 32 31 30 29 28 28 28 28 28 28 28 29 29 30 30 31 32 33 34 34 35 35 36 36 37 37 37 37 37 38 38 39 39 40 41 42 43 44
34 33 33 32 31 30 29 28 27 27 27 27 27 27 27 28 29 30 31 32 33 33 34 35 36 36 37 37 38 38 38 39 39 39 40 41 42 43 44 45 45 46 47
31 30 30 30 29 29 28 27 27 27 27 27 27 27 28 29 30 31 32 33 34 35 36 36 37 38 39 39 39 40 40 40 41 42 42 43 44 45 46 47 47 48 49
Wind_Direction
281 285 288 292 295 297 298 298 299 300 302 303 304 305 307 308 310 311 312 312 312 311 310 309 308 307 307 306 305 304 303 301 300 298 296 294 291 289 286 284 282 280 278
280 283 286 289 292 294 295 296 297 298 300 301 302 304 305 307 308 310 310 310 310 309 308 307 306 306 305 305 304 303 301 300 298 297 295 293 291 288 285 283 281 278 276
278 281 284 286 289 291 292 294 295 297 298 300 301 303 304 306 308 309 309 309 309 308 307 306 305 305 304 303 303 302 301 299 298 296 294 292 290 287 283 281 279 277 275
277 280 283 285 287 289 291 292 293 295 297 299 300 302 304 306 307 308 308 308 307 306 306 305 305 304 303 302 301 300 299 298 296 295 293 291 289 286 283 280 278 275 273
277 279 282 284 286 287 289 290 293 294 296 297 299 302 303 305 306 307 307 306 306 305 304 304 303 303 302 301 300 299 298 296 295 293 291 289 287 285 282 279 276 274 271
277 279 281 283 285 286 288 290 292 293 295 296 298 300 302 304 305 306 305 305 304 303 303 302 301 301 300 299 298 298 297 296 294 292 290 288 285 283 280 278 275 272 269
277 279 280 282 283 285 287 289 291 292 294 295 297 299 301 303 304 304 303 303 302 301 301 300 300 299 298 298 298 297 297 296 294 292 290 287 284 282 279 276 273 269 266
276 278 279 280 282 284 286 288 290 292 293 294 296 298 299 301 301 302 301 300 300 300 299 299 298 298 298 298 297 297 296 296 294 293 291 287 284 281 278 274 271 268 264
275 277 278 279 281 283 285 287 289 291 291 293 295 298 299 300 300 299 298 298 298 298 298 297 297 298 298 297 298 297 297 296 295 293 290 288 285 281 278 272 268 266 263
274 276 277 278 280 282 284 286 288 290 291 293 295 297 298 299 299 299 297 297 296 296 296 296 296 297 298 298 298 298 298 298 297 294 291 289 286 282 278 273 268 264 261
272 273 275 277 279 281 283 285 288 289 290 292 295 297 297 297 298 298 298 297 297 296 296 295 296 297 298 299 299 299 299 299 298 295 293 291 287 282 279 274 270 265 260
270 272 274 276 278 280 283 285 287 288 290 292 294 296 296 296 296 297 297 297 297 297 296 296 297 298 299 300 300 301 301 301 300 298 295 292 288 283 279 275 272 269 263
270 272 274 276 278 280 283 285 286 288 290 292 294 294 294 294 295 296 296 297 297 297 297 297 298 299 300 301 302 303 304 304 302 300 298 294 289 284 281 275 272 269 266
270 272 274 276 278 280 282 284 286 288 290 292 292 292 293 293 294 295 296 296 297 297 297 297 298 300 300 301 302 304 306 306 305 303 302 299 293 287 284 279 273 269 265
270 272 274 276 277 279 281 283 285 287 289 290 290 291 291 292 293 294 295 296 297 297 297 298 299 299 300 301 303 305 307 308 308 307 306 305 300 293 288 279 274 270 264
270 272 274 275 277 279 281 283 285 287 288 289 289 289 290 292 293 294 295 296 297 297 298 298 299 300 300 301 303 305 308 309 310 311 309 310 306 298 291 283 280 273 265
270 272 273 275 277 279 281 283 284 285 286 287 287 288 289 291 293 294 296 297 297 298 298 298 299 299 300 301 303 305 307 309 311 312 311 309 306 300 294 284 283 278 271
270 272 273 275 277 279 280 282 283 284 284 285 286 288 289 291 293 295 296 297 297 298 298 298 299 299 300 301 302 304 306 307 308 310 310 308 306 303 297 291 285 280 274
270 271 273 275 276 278 280 280 281 282 282 284 286 287 289 291 293 295 296 297 298 298 298 298 298 299 300 301 302 303 304 305 305 306 306 305 303 301 297 292 287 282 276
270 271 272 273 275 277 277 278 278 279 281 283 285 287 289 292 294 295 296 297 298 298 298 298 298 300 300 301 302 302 303 303 303 303 302 301 300 298 296 292 288 284 280
269 269 270 272 273 273 274 275 276 278 280 282 284 286 289 292 294 295 296 297 297 297 297 298 299 300 300 301 301 301 302 302 301 301 300 299 298 296 294 291 288 285 282
267 268 269 270 270 271 272 273 274 276 278 281 284 286 289 292 294 295 295 296 297 297 298 298 299 300 301 301 301 301 301 300 300 299 298 297 296 294 293 291 289 287 284
266 266 267 267 268 269 269 270 272 275 277 280 283 287 290 292 294 295 296 296 297 298 298 299 299 300 301 301 301 301 301 300 300 299 298 297 295 294 292 290 288 287 285
264 264 264 265 265 265 266 267 270 273 277 281 284 287 290 293 294 295 296 296 297 298 298 299 299 300 300 301 301 301 301 300 299 298 297 296 295 294 292 290 288 287 285
261 261 261 261 262 262 264 266 270 274 278 281 285 289 292 293 295 296 296 297 297 298 298 298 299 299 300 300 301 301 300 300 299 299 298 297 296 295 293 291 289 287 286
258 259 259 259 260 261 263 266 270 275 278 282 286 289 292 293 295 296 296 297 297 298 298 298 298 299 300 300 300 300 300 300 299 299 298 297 297 296 294 292 290 288 287
Height
5877 5876 5876 5875 5874 5874 5872 5871 5869 5868 5866 5864 5862 5859 5857 5854 5851 5848 5845 5842 5839 5836 5833 5830 5827 5824 5821 5818 5815 5813 5810 5808 5806 5804 5802 5800 5799 5797 5796 5796 5795 5795 5795
5872 5872 5871 5871 5870 5869 5868 5867 5865 5863 5861 5859 5857 5854 5852 5849 5846 5843 5839 5836 5833 5830 5827 5823 5820 5817 5814 5811 5808 5806 5803 5801 5799 5797 5795 5793 5791 5790 5789 5788 5788 5788 5788
5868 5867 5867 5866 5866 5865 5863 5862 5860 5858 5856 5854 5851 5849 5846 5843 5840 5836 5833 5829 5826 5823 5819 5816 5813 5810 5807 5804 5801 5798 5795 5793 5791 5789 5787 5785 5783 5782 5781 5780 5780 5780 5781
5862 5862 5861 5861 5860 5859 5858 5856 5854 5853 5850 5848 5845 5842 5840 5836 5833 5829 5826 5822 5818 5815 5812 5808 5805 5802 5799 5796 5793 5790 5787 5785 5782 5781 5779 5777 5775 5774 5773 5772 5772 5772 5772
5857 5857 5856 5855 5854 5853 5852 5850 5849 5847 5844 5842 5839 5836 5833 5829 5826 5822 5818 5814 5810 5807 5803 5800 5796 5793 5791 5788 5785 5782 5779 5777 5774 5772 5770 5768 5766 5765 5764 5763 5763 5763 5764
5851 5851 5850 5849 5848 5847 5845 5844 5842 5840 5838 5835 5832 5829 5826 5822 5818 5814 5810 5806 5802 5798 5795 5791 5788 5785 5782 5779 5776 5773 5770 5768 5765 5762 5760 5758 5756 5755 5754 5753 5753 5753 5754
5844 5844 5843 5842 5841 5840 5839 5837 5835 5833 5830 5827 5825 5822 5819 5815 5810 5806 5802 5798 5794 5790 5786 5782 5779 5776 5773 5770 5767 5764 5761 5758 5754 5752 5749 5747 5745 5744 5742 5742 5742 5742 5743
5837 5837 5836 5835 5834 5833 5832 5830 5827 5825 5823 5820 5817 5814 5812 5809 5804 5798 5793 5789 5785 5781 5777 5774 5770 5767 5764 5761 5757 5754 5750 5747 5743 5740 5737 5735 5733 5731 5730 5729 5729 5730 5731
5829 5829 5828 5828 5827 5825 5824 5822 5820 5818 5815 5813 5809 5805 5802 5799 5796 5792 5786 5781 5776 5772 5768 5765 5761 5758 5754 5751 5747 5743 5740 5736 5732 5728 5725 5721 5719 5718 5716 5715 5716 5717 5718
5821 5821 5820 5819 5818 5817 5816 5814 5811 5809 5807 5804 5801 5797 5793 5789 5785 5783 5779 5774 5768 5763 5759 5755 5751 5748 5744 5741 5737 5733 5729 5725 5721 5717 5713 5709 5705 5703 5701 5701 5701 5702 5703
5812 5812 5812 5811 5810 5809 5807 5805 5803 5800 5798 5795 5792 5788 5784 5779 5775 5772 5769 5765 5760 5755 5750 5746 5742 5739 5735 5731 5727 5722 5718 5714 5709 5705 5701 5697 5693 5689 5686 5686 5686 5687 5688
5803 5803 5802 5802 5801 5799 5798 5796 5793 5791 5788 5785 5782 5778 5774 5770 5766 5762 5758 5755 5751 5746 5741 5737 5733 5729 5725 5721 5717 5712 5708 5703 5698 5694 5689 5684 5680 5676 5674 5673 5672 5673 5674
5793 5793 5793 5792 5791 5789 5788 5786 5784 5781 5779 5775 5772 5768 5764 5760 5756 5752 5748 5745 5741 5737 5732 5727 5723 5719 5716 5711 5707 5703 5698 5693 5688 5683 5678 5673 5668 5665 5662 5661 5661 5661 5662
5783 5783 5782 5782 5781 5779 5778 5776 5774 5771 5768 5765 5762 5758 5754 5750 5747 5743 5739 5735 5731 5727 5723 5719 5714 5710 5706 5702 5698 5693 5689 5684 5678 5673 5668 5663 5659 5655 5653 5652 5651 5651 5652
5773 5772 5772 5771 5770 5769 5767 5766 5763 5761 5758 5755 5751 5748 5744 5741 5737 5733 5729 5726 5722 5719 5714 5710 5706 5701 5697 5693 5689 5685 5680 5675 5670 5665 5660 5655 5651 5648 5645 5644 5643 5643 5645
5762 5762 5761 5761 5760 5758 5757 5755 5753 5750 5748 5744 5741 5738 5735 5731 5728 5724 5720 5716 5713 5709 5705 5701 5697 5693 5689 5685 5682 5677 5673 5668 5664 5659 5654 5650 5646 5642 5640 5638 5638 5637 5638
5751 5751 5751 5750 5749 5747 5746 5744 5742 5740 5737 5734 5731 5728 5725 5722 5718 5715 5711 5707 5704 5700 5697 5693 5689 5685 5682 5678 5674 5670 5666 5662 5658 5653 5649 5645 5642 5638 5636 5634 5633 5632 5632
5740 5740 5739 5739 5738 5737 5735 5733 5731 5729 5727 5724 5722 5719 5716 5713 5709 5706 5702 5699 5695 5691 5688 5685 5681 5678 5674 5671 5667 5664 5660 5656 5652 5648 5644 5641 5638 5635 5632 5630 5628 5627 5627
5729 5729 5728 5728 5727 5726 5724 5722 5721 5719 5717 5715 5712 5710 5707 5704 5700 5697 5694 5690 5687 5683 5680 5677 5674 5670 5667 5664 5660 5657 5653 5649 5646 5642 5639 5636 5633 5630 5628 5625 5624 5622 5621
5718 5718 5717 5717 5716 5715 5714 5712 5711 5709 5707 5705 5703 5700 5698 5695 5692 5689 5685 5682 5679 5676 5672 5669 5666 5663 5660 5656 5653 5649 5646 5642 5639 5635 5632 5629 5626 5624 5621 5619 5617 5616 5614
5706 5706 5706 5706 5705 5704 5703 5702 5701 5699 5698 5696 5694 5691 5689 5686 5683 5680 5677 5674 5671 5668 5665 5662 5659 5656 5652 5649 5646 5642 5638 5635 5631 5628 5625 5622 5619 5616 5614 5611 5609 5607 5606
5695 5695 5695 5695 5694 5694 5693 5693 5692 5690 5689 5687 5685 5683 5680 5678 5675 5672 5669 5666 5663 5660 5657 5654 5651 5648 5645 5641 5638 5634 5630 5627 5624 5620 5617 5614 5611 5608 5605 5602 5600 5597 5595
5684 5685 5685 5685 5684 5684 5684 5683 5682 5681 5680 5678 5677 5675 5672 5670 5667 5664 5661 5659 5656 5652 5650 5647 5643 5640 5636 5633 5629 5626 5622 5618 5615 5611 5607 5604 5601 5598 5594 5591 5589 5586 5584
5674 5675 5675 5675 5675 5675 5675 5674 5674 5673 5672 5670 5669 5666 5664 5662 5659 5656 5654 5651 5648 5645 5642 5638 5635 5631 5627 5624 5620 5616 5612 5608 5605 5601 5597 5594 5590 5587 5583 5579 5576 5573 5570
5665 5665 5666 5666 5666 5667 5667 5666 5666 5665 5664 5662 5660 5658 5656 5654 5651 5648 5646 5643 5640 5636 5633 5629 5626 5622 5618 5614 5610 5606 5602 5598 5594 5590 5586 5582 5578 5574 5570 5566 5562 5558 5555
5656 5657 5658 5658 5658 5659 5659 5658 5658 5657 5655 5654 5652 5650 5648 5645 5643 5640 5637 5634 5631 5627 5624 5620 5616 5612 5608 5604 5599 5595 5591 5587 5583 5579 5574 5570 5565 5561 5556 5551 5546 5542 5538